sat.trackr.live / text

‹ back to catalog

CBERS 4

NORAD 40336 · 2014-079A

PAYLOAD ACTIVE UNKNOWN

§ Identity

Operator
Country
CHBZ
Launch date
2014-12-07
Launch site
TAISC
Launch vehicle
Mass (kg)
RCS (m²)
3.78

Purposes: earth_obs

External: N2YO · Heavens-Above · Gunter

§ Orbital elements

Epoch: 2026-09-10T05:05:56.974272Z

Period
100.31 min
Inclination
98.3461°
Eccentricity
0.0001899
Mean motion
14.35517143 rev/d
Perigee alt
772.0 km
Apogee alt
774.7 km
Semi-major
7,151.5 km
B*
-2.5762e-5
RAAN
307.3414°
Arg perigee
101.2356°
Mean anomaly
258.9043°
Rev number
61,615

§ Raw data

CBERS 41 40336U 14079A   26253.21246498 -.00000116  00000+0 -25762-4 0  99962 40336  98.3461 307.3414 0001899 101.2356 258.9043 14.35517143616150

JSON: /api/v1/satellites/40336 · /tle

For live sub-satellite position, see the globe view (requires WebGL).

§ Visibility from observer

Set your observer location to see the next 7 days of passes ≥ 10°. The values pass through the URL so the page stays shareable.

No JS? Fill the form by hand. The geolocation button needs JavaScript.

§ Radio — SatNOGS DB

ModeDescriptionDownlinkUplink
FM S-band telemetry 2.217 GHz

1 transmitter · refreshed weekly from db.satnogs.org